EW8749 Weather Reports


Display with metric or nautical units.
time (UTC)temp
F
wind
direction
speed
MPH
gust
MPH
rain 1hr
in
rain 24hr
in
rain mn
in
humidity
%
barometer
mb
20260506061523 58 251 3.0 10.0 0.00 0.01 0.01 63 1018.8
20260506044515 58 256 5.0 13.0 0.00 0.01 0.01 62 1019.3
20260506043012 58 326 4.0 12.0 0.00 0.01 0.01 62 1019.4
20260506041522 59 256 4.0 13.0 0.00 0.01 0.01 59 1019.5
20260506040008 58 292 3.0 11.0 0.00 0.01 0.01 60 1019.7
20260506034508 58 266 4.0 11.0 0.00 0.01 0.01 63 1020.0
20260506033005 58 318 5.0 13.0 0.00 0.01 0.01 63 1020.1
20260506031607 59 249 2.0 11.0 0.00 0.01 0.01 64 1020.4
20260506030058 59 290 4.0 12.0 0.00 0.01 0.01 66 1020.5
20260506024556 58 263 5.0 10.0 0.00 0.01 0.01 64 1020.9
20260506023053 58 214 2.0 9.0 0.00 0.01 0.01 67 1021.0
20260506021554 58 253 2.0 11.0 0.00 0.01 0.01 67 1021.4
20260506020046 58 291 1.0 8.0 0.00 0.01 0.01 69 1021.8
20260506014550 57 245 0.0 7.0 0.00 0.01 0.01 70 1022.0
20260506013040 56 309 2.0 7.0 0.00 0.01 0.01 71 1022.5
20260506011540 56 242 0.0 4.0 0.00 0.01 0.01 73 1022.6
20260506010032 55 308 0.0 5.0 0.00 0.01 0.01 75 1022.8
20260506004537 54 288 1.0 5.0 0.00 0.01 0.01 78 1023.0
20260506003024 51 104 0.0 0.0 0.00 0.00 0.01 85 1023.2
20260506001519 50 105 0.0 2.0 0.00 0.01 0.01 90 1023.4
20260506000019 48 106 0.0 3.0 0.00 0.01 0.01 92 1023.5
20260505234516 47 83 0.0 0.0 0.00 0.01 0.01 91 1023.7
20260505233007 46 83 0.0 1.0 0.00 0.01 0.01 91 1023.7
20260505231505 44 329 0.0 2.0 0.00 0.01 0.01 91 1023.8
20260505224558 42 301 0.0 0.0 0.00 0.01 0.01 91 1024.0
20260505223058 41 301 0.0 0.0 0.00 0.01 0.01 91 1024.0
20260505221554 41 301 0.0 0.0 0.01 0.01 0.01 91 1023.9
20260505220051 40 301 0.0 0.0 0.01 0.01 0.01 91 1023.8